Tracking 30685 objects as of 19-Jun-2025
HD Live streaming from Space Station
objects crossing your sky now

FENGYUN 1C DEB

Track FENGYUN 1C DEB now!
10-day predictions


NORAD ID: 30892
Int'l Code: 1999-025AYE
Perigee: 809.7 km
Apogee: 865.2 km
Inclination: 99.6 °
Period: 101.5 minutes
Semi major axis: 7208 km
RCS: 0.0064 m2 (small)
Launch date: May 10, 1999
Source: People's Republic of China (PRC)
Launch site: Taiyaun Space Center, China (TSC)

Note: This is SATELLITE DEBRIS
Your satellite tracking list
Your tracking list is empty




NASA's NSSDC Master Catalog

Two Line Element Set (TLE):
1 30892U 99025AYE 25167.53445390  .00000619  00000-0  32193-3 0  9998
2 30892  99.6489  95.0187 0038491 331.9700  27.9399 14.18543646617620
Source of the keplerian elements: AFSPC